| time (UTC) | temp C | wind direction | speed KPH | gust KPH | rain 1hr cm | rain 24hr cm | rain mn cm | humidity % | barometer mb |
| 20260510081504 | 8 | 5 | 1.6 | 6.4 | 0.00 | 1.55 | 0.03 | 93 | 1010.0 |
| 20260510081004 | 8 | 5 | 1.6 | 4.8 | 0.00 | 1.55 | 0.03 | 93 | 1009.9 |
| 20260510075504 | 8 | 9 | 3.2 | 6.4 | 0.00 | 1.55 | 0.03 | 91 | 1009.7 |
| 20260510075004 | 8 | 8 | 3.2 | 12.9 | 0.00 | 1.55 | 0.03 | 90 | 1009.6 |
| 20260510074503 | 9 | 2 | 4.8 | 12.9 | 0.00 | 1.55 | 0.03 | 89 | 1009.4 |
| 20260510074003 | 9 | 359 | 3.2 | 9.7 | 0.00 | 1.55 | 0.03 | 90 | 1009.4 |
| 20260510073504 | 9 | 4 | 3.2 | 9.7 | 0.00 | 1.55 | 0.03 | 89 | 1009.3 |
| 20260510073003 | 10 | 3 | 3.2 | 8.0 | 0.00 | 1.55 | 0.03 | 89 | 1009.2 |
| 20260510072504 | 10 | 22 | 4.8 | 16.1 | 0.00 | 1.55 | 0.03 | 91 | 1009.3 |
| 20260510072004 | 10 | 29 | 4.8 | 16.1 | 0.00 | 1.57 | 0.03 | 91 | 1009.2 |
| 20260510071504 | 10 | 27 | 4.8 | 16.1 | 0.00 | 1.57 | 0.03 | 93 | 1009.1 |
| 20260510071003 | 10 | 28 | 4.8 | 11.3 | 0.00 | 1.60 | 0.03 | 94 | 1009.1 |
| 20260510070504 | 10 | 30 | 4.8 | 11.3 | 0.00 | 1.60 | 0.03 | 94 | 1009.1 |
| 20260510070004 | 10 | 10 | 3.2 | 8.0 | 0.00 | 1.63 | 0.03 | 94 | 1009.1 |
| 20260510065503 | 10 | 352 | 3.2 | 8.0 | 0.00 | 1.63 | 0.03 | 94 | 1009.1 |
| 20260510065004 | 10 | 353 | 4.8 | 9.7 | 0.00 | 1.63 | 0.03 | 94 | 1009.0 |
| 20260510064004 | 10 | 348 | 4.8 | 14.5 | 0.00 | 1.65 | 0.03 | 94 | 1008.9 |
| 20260510063503 | 10 | 341 | 6.4 | 12.9 | 0.00 | 1.65 | 0.03 | 94 | 1008.8 |
| 20260510063004 | 10 | 343 | 6.4 | 12.9 | 0.00 | 1.68 | 0.03 | 94 | 1008.9 |
| 20260510060504 | 11 | 289 | 3.2 | 9.7 | 0.00 | 1.78 | 0.03 | 94 | 1008.6 |
| 20260510055503 | 11 | 309 | 3.2 | 12.9 | 0.03 | 1.80 | 0.03 | 94 | 1008.7 |
| 20260510055004 | 11 | 318 | 6.4 | 12.9 | 0.03 | 1.80 | 0.03 | 94 | 1008.5 |
| 20260510054504 | 11 | 314 | 6.4 | 12.9 | 0.03 | 1.80 | 0.03 | 95 | 1008.7 |
| 20260510053504 | 11 | 288 | 6.4 | 19.3 | 0.03 | 1.83 | 0.03 | 96 | 1008.7 |
| 20260510053003 | 11 | 280 | 6.4 | 20.9 | 0.03 | 1.83 | 0.03 | 96 | 1008.7 |
| 20260510052503 | 11 | 272 | 9.7 | 25.7 | 0.03 | 1.85 | 0.03 | 96 | 1008.6 |
| 20260510052003 | 11 | 283 | 12.9 | 32.2 | 0.03 | 1.85 | 0.03 | 97 | 1008.2 |
| 20260510051503 | 11 | 293 | 11.3 | 32.2 | 0.03 | 1.88 | 0.03 | 97 | 1008.1 |
| 20260510050503 | 10 | 213 | 4.8 | 12.9 | 0.00 | 1.85 | 0.00 | 96 | 1007.0 |
| 20260510050012 | 10 | 214 | 4.8 | 12.9 | 0.00 | 1.88 | 0.00 | 96 | 1006.9 |
| 20260510045511 | 10 | 214 | 3.2 | 9.7 | 0.00 | 1.88 | 0.00 | 96 | 1006.9 |
| 20260510045011 | 10 | 218 | 1.6 | 8.0 | 0.00 | 1.91 | 0.00 | 96 | 1006.9 |
| 20260510044511 | 10 | 223 | 1.6 | 4.8 | 0.00 | 1.91 | 0.00 | 96 | 1006.8 |
| 20260510044011 | 11 | 223 | 1.6 | 4.8 | 0.00 | 1.91 | 0.00 | 96 | 1006.8 |
| 20260510043511 | 11 | 223 | 1.6 | 6.4 | 0.03 | 1.91 | 0.00 | 96 | 1006.7 |
| 20260510043011 | 11 | 223 | 3.2 | 6.4 | 0.03 | 1.93 | 0.00 | 95 | 1006.7 |
| 20260510041512 | 11 | 213 | 8.0 | 20.9 | 0.03 | 1.96 | 0.00 | 96 | 1006.7 |
| 20260510041011 | 11 | 221 | 6.4 | 14.5 | 0.03 | 1.96 | 0.00 | 96 | 1006.6 |
| 20260510040511 | 11 | 227 | 8.0 | 19.3 | 0.03 | 1.96 | 0.00 | 96 | 1007.1 |
| 20260510040011 | 11 | 217 | 8.0 | 19.3 | 0.03 | 1.96 | 0.00 | 96 | 1007.0 |
| 20260510035512 | 11 | 213 | 8.0 | 17.7 | 0.03 | 1.96 | 1.96 | 96 | 1006.8 |
| 20260510035011 | 11 | 213 | 6.4 | 14.5 | 0.03 | 1.96 | 1.96 | 96 | 1006.9 |
| 20260510034010 | 11 | 219 | 4.8 | 9.7 | 0.08 | 1.98 | 1.96 | 96 | 1007.0 |
| 20260510033511 | 11 | 230 | 3.2 | 8.0 | 0.05 | 1.98 | 1.93 | 96 | 1006.8 |
| 20260510032511 | 11 | 238 | 3.2 | 4.8 | 0.05 | 2.01 | 1.93 | 96 | 1006.8 |
| 20260510032011 | 11 | 239 | 1.6 | 4.8 | 0.05 | 2.01 | 1.93 | 96 | 1006.6 |
| 20260510031510 | 11 | 239 | 0.0 | 4.8 | 0.05 | 2.01 | 1.93 | 96 | 1006.4 |
| 20260510031011 | 11 | 239 | 1.6 | 14.5 | 0.08 | 2.01 | 1.93 | 96 | 1006.5 |
| 20260510030511 | 11 | 239 | 6.4 | 14.5 | 0.08 | 2.01 | 1.93 | 96 | 1006.7 |
| 20260510030011 | 11 | 225 | 9.7 | 27.4 | 0.08 | 2.01 | 1.93 | 96 | 1006.9 |
| 20260510025511 | 11 | 221 | 12.9 | 29.0 | 0.08 | 2.01 | 1.93 | 96 | 1007.0 |
| 20260510025012 | 11 | 227 | 9.7 | 29.0 | 0.05 | 1.98 | 1.91 | 96 | 1007.3 |
| 20260510024511 | 11 | 222 | 4.8 | 16.1 | 0.05 | 1.98 | 1.91 | 97 | 1007.6 |
| 20260510024011 | 11 | 205 | 1.6 | 6.4 | 0.03 | 1.96 | 1.88 | 96 | 1006.9 |
| 20260510023511 | 11 | 198 | 1.6 | 9.7 | 0.03 | 1.96 | 1.88 | 96 | 1006.4 |
| 20260510023010 | 11 | 193 | 3.2 | 11.3 | 0.03 | 1.96 | 1.88 | 96 | 1006.5 |
| 20260510022511 | 11 | 194 | 3.2 | 11.3 | 0.03 | 1.96 | 1.88 | 96 | 1006.4 |
| 20260510022010 | 11 | 204 | 1.6 | 6.4 | 0.03 | 1.96 | 1.88 | 96 | 1006.5 |
| 20260510021511 | 11 | 205 | 1.6 | 6.4 | 0.03 | 1.96 | 1.88 | 96 | 1006.6 |
| 20260510021011 | 10 | 205 | 0.0 | 1.6 | 0.00 | 1.93 | 1.85 | 96 | 1006.6 |
| 20260510020011 | 10 | 203 | 1.6 | 9.7 | 0.00 | 1.93 | 1.85 | 96 | 1006.3 |
| 20260510015511 | 11 | 205 | 3.2 | 9.7 | 0.00 | 1.93 | 1.85 | 95 | 1006.4 |
| 20260510014512 | 11 | 207 | 3.2 | 9.7 | 0.00 | 1.96 | 1.85 | 95 | 1006.5 |
| 20260510014011 | 11 | 207 | 3.2 | 8.0 | 0.00 | 1.96 | 1.85 | 95 | 1006.5 |
| 20260510013510 | 11 | 207 | 3.2 | 8.0 | 0.00 | 1.96 | 1.85 | 95 | 1006.4 |
| 20260510013011 | 11 | 207 | 3.2 | 8.0 | 0.00 | 1.96 | 1.85 | 94 | 1006.3 |
| 20260510012511 | 11 | 206 | 4.8 | 9.7 | 0.00 | 1.96 | 1.85 | 94 | 1006.3 |
| 20260510012011 | 11 | 207 | 4.8 | 9.7 | 0.00 | 1.96 | 1.85 | 94 | 1006.3 |
| 20260510011511 | 11 | 207 | 4.8 | 8.0 | 0.00 | 1.96 | 1.85 | 94 | 1006.2 |
| 20260510011010 | 11 | 212 | 4.8 | 11.3 | 0.00 | 1.98 | 1.85 | 94 | 1006.0 |
| 20260510010511 | 11 | 224 | 6.4 | 11.3 | 0.00 | 1.98 | 1.85 | 93 | 1005.9 |
| 20260510010011 | 12 | 232 | 6.4 | 14.5 | 0.00 | 2.01 | 1.85 | 93 | 1005.9 |
| 20260510005511 | 12 | 233 | 8.0 | 14.5 | 0.00 | 2.01 | 1.85 | 94 | 1005.9 |
| 20260510005011 | 12 | 237 | 6.4 | 14.5 | 0.05 | 2.03 | 1.85 | 94 | 1006.0 |
| 20260510004510 | 12 | 239 | 6.4 | 11.3 | 0.08 | 2.06 | 1.85 | 94 | 1006.1 |
| 20260510003511 | 12 | 232 | 4.8 | 12.9 | 0.18 | 2.08 | 1.85 | 94 | 1006.0 |
| 20260510003010 | 12 | 228 | 4.8 | 12.9 | 0.18 | 2.11 | 1.85 | 94 | 1005.9 |
| 20260510002511 | 12 | 226 | 4.8 | 12.9 | 0.25 | 2.11 | 1.85 | 93 | 1006.0 |
| 20260510001511 | 12 | 239 | 6.4 | 14.5 | 0.33 | 2.13 | 1.85 | 93 | 1005.9 |
| 20260510001011 | 12 | 245 | 8.0 | 16.1 | 0.79 | 2.13 | 1.85 | 93 | 1006.0 |
| 20260510000511 | 12 | 247 | 8.0 | 19.3 | 1.30 | 2.16 | 1.85 | 93 | 1005.9 |
| 20260509235510 | 12 | 252 | 9.7 | 20.9 | 1.37 | 2.16 | 1.83 | 93 | 1006.0 |
| 20260509235011 | 12 | 255 | 12.9 | 27.4 | 1.35 | 2.16 | 1.80 | 93 | 1005.9 |
| 20260509234510 | 12 | 256 | 14.5 | 30.6 | 1.30 | 2.13 | 1.75 | 93 | 1006.1 |
| 20260509234012 | 12 | 258 | 14.5 | 30.6 | 1.24 | 2.08 | 1.70 | 92 | 1006.2 |
| 20260509233511 | 12 | 267 | 11.3 | 30.6 | 1.22 | 2.08 | 1.68 | 92 | 1006.2 |
| 20260509233011 | 12 | 292 | 8.0 | 30.6 | 1.22 | 2.08 | 1.68 | 91 | 1006.0 |
| 20260509232011 | 12 | 305 | 11.3 | 27.4 | 1.12 | 2.01 | 1.57 | 89 | 1006.0 |
| 20260509231010 | 13 | 309 | 20.9 | 49.9 | 0.53 | 1.42 | 0.99 | 79 | 1006.3 |
| 20260509223510 | 18 | 226 | 11.3 | 35.4 | 0.00 | 1.09 | 0.46 | 56 | 1003.4 |
| 20260509223011 | 18 | 229 | 11.3 | 29.0 | 0.00 | 1.12 | 0.46 | 56 | 1003.6 |
| 20260509222511 | 19 | 218 | 12.9 | 43.5 | 0.00 | 1.14 | 0.46 | 55 | 1003.6 |
| 20260509222011 | 19 | 209 | 14.5 | 43.5 | 0.00 | 1.19 | 0.46 | 55 | 1003.4 |
| 20260509221510 | 19 | 214 | 11.3 | 27.4 | 0.00 | 1.19 | 0.46 | 56 | 1003.3 |
| 20260509221010 | 19 | 218 | 11.3 | 32.2 | 0.00 | 1.19 | 0.46 | 56 | 1003.2 |
| 20260509220010 | 20 | 206 | 17.7 | 46.7 | 0.00 | 1.19 | 0.46 | 55 | 1003.2 |
| 20260509215511 | 20 | 212 | 14.5 | 40.2 | 0.00 | 1.19 | 0.46 | 54 | 1003.3 |
| 20260509215011 | 20 | 208 | 12.9 | 29.0 | 0.00 | 1.19 | 0.46 | 55 | 1003.2 |
| 20260509214511 | 20 | 206 | 16.1 | 41.8 | 0.00 | 1.19 | 0.46 | 57 | 1003.2 |
| 20260509213511 | 20 | 200 | 16.1 | 32.2 | 0.00 | 1.19 | 0.46 | 55 | 1003.2 |
| 20260509213011 | 20 | 204 | 14.5 | 37.0 | 0.00 | 1.19 | 0.46 | 55 | 1003.2 |
| 20260509212510 | 20 | 200 | 14.5 | 37.0 | 0.00 | 1.19 | 0.46 | 56 | 1003.1 |
| 20260509212011 | 20 | 201 | 14.5 | 33.8 | 0.00 | 1.19 | 0.46 | 56 | 1003.3 |
| 20260509211510 | 20 | 200 | 14.5 | 38.6 | 0.00 | 1.19 | 0.46 | 59 | 1003.5 |
| 20260509211011 | 20 | 197 | 14.5 | 38.6 | 0.00 | 1.19 | 0.46 | 58 | 1003.5 |
| 20260509210511 | 20 | 208 | 14.5 | 33.8 | 0.00 | 1.19 | 0.46 | 58 | 1003.7 |
| 20260509210010 | 20 | 210 | 16.1 | 35.4 | 0.00 | 1.19 | 0.46 | 57 | 1003.6 |
| 20260509205511 | 20 | 213 | 14.5 | 38.6 | 0.00 | 1.19 | 0.46 | 56 | 1003.6 |
| 20260509205010 | 20 | 218 | 14.5 | 38.6 | 0.00 | 1.22 | 0.46 | 57 | 1003.8 |
| 20260509204511 | 20 | 212 | 16.1 | 32.2 | 0.00 | 1.22 | 0.46 | 57 | 1003.9 |
| 20260509204010 | 20 | 213 | 16.1 | 32.2 | 0.00 | 1.22 | 0.46 | 56 | 1003.9 |
| 20260509203511 | 20 | 223 | 14.5 | 33.8 | 0.00 | 1.22 | 0.46 | 57 | 1004.0 |
| 20260509203011 | 20 | 227 | 16.1 | 40.2 | 0.00 | 1.22 | 0.46 | 57 | 1004.0 |
| 20260509202511 | 20 | 222 | 17.7 | 40.2 | 0.00 | 1.22 | 0.46 | 55 | 1004.0 |
| 20260509202011 | 19 | 213 | 17.7 | 41.8 | 0.00 | 1.22 | 0.46 | 57 | 1004.1 |
| 20260509201510 | 19 | 209 | 16.1 | 41.8 | 0.00 | 1.22 | 0.46 | 57 | 1004.1 |
| 20260509201010 | 19 | 220 | 17.7 | 40.2 | 0.00 | 1.22 | 0.46 | 56 | 1004.1 |
| 20260509200511 | 19 | 223 | 19.3 | 40.2 | 0.00 | 1.22 | 0.46 | 57 | 1004.1 |
| 20260509200010 | 20 | 212 | 16.1 | 37.0 | 0.00 | 1.22 | 0.46 | 59 | 1004.3 |
| 20260509195511 | 19 | 208 | 14.5 | 37.0 | 0.00 | 1.22 | 0.46 | 56 | 1004.3 |
| 20260509195010 | 19 | 215 | 14.5 | 35.4 | 0.00 | 1.22 | 0.46 | 60 | 1004.6 |
| 20260509194010 | 19 | 228 | 19.3 | 37.0 | 0.00 | 1.22 | 0.46 | 59 | 1004.7 |
| 20260509193510 | 19 | 221 | 17.7 | 37.0 | 0.00 | 1.22 | 0.46 | 61 | 1004.9 |
| 20260509193011 | 18 | 222 | 17.7 | 35.4 | 0.00 | 1.22 | 0.46 | 63 | 1004.9 |
| 20260509191511 | 18 | 210 | 14.5 | 33.8 | 0.00 | 1.22 | 0.46 | 63 | 1005.3 |
| 20260509191011 | 18 | 208 | 16.1 | 33.8 | 0.00 | 1.22 | 0.46 | 62 | 1005.2 |
| 20260509190511 | 18 | 207 | 14.5 | 33.8 | 0.00 | 1.22 | 0.46 | 62 | 1005.2 |
| 20260509190011 | 18 | 209 | 12.9 | 29.0 | 0.00 | 1.22 | 0.46 | 63 | 1005.2 |
| 20260509185510 | 18 | 212 | 12.9 | 32.2 | 0.00 | 1.22 | 0.46 | 65 | 1005.2 |
| 20260509185011 | 18 | 212 | 12.9 | 32.2 | 0.00 | 1.22 | 0.46 | 62 | 1005.4 |
| 20260509184510 | 18 | 203 | 14.5 | 30.6 | 0.00 | 1.22 | 0.46 | 63 | 1005.3 |
| 20260509184011 | 18 | 191 | 16.1 | 37.0 | 0.00 | 1.22 | 0.46 | 62 | 1005.2 |
| 20260509183510 | 18 | 198 | 14.5 | 37.0 | 0.00 | 1.22 | 0.46 | 63 | 1005.2 |
| 20260509182010 | 18 | 203 | 16.1 | 41.8 | 0.00 | 1.22 | 0.46 | 64 | 1005.2 |
| 20260509181511 | 17 | 211 | 16.1 | 41.8 | 0.00 | 1.22 | 0.46 | 62 | 1005.2 |
| 20260509181011 | 18 | 214 | 16.1 | 30.6 | 0.00 | 1.22 | 0.46 | 63 | 1005.3 |
| 20260509180511 | 18 | 225 | 14.5 | 30.6 | 0.00 | 1.22 | 0.46 | 64 | 1005.3 |
| 20260509180011 | 18 | 223 | 12.9 | 29.0 | 0.00 | 1.22 | 0.46 | 64 | 1005.3 |
| 20260509175510 | 18 | 219 | 12.9 | 29.0 | 0.00 | 1.22 | 0.46 | 62 | 1005.4 |
| 20260509175010 | 18 | 216 | 8.0 | 25.7 | 0.00 | 1.22 | 0.46 | 64 | 1005.3 |
| 20260509174510 | 18 | 217 | 9.7 | 33.8 | 0.00 | 1.22 | 0.46 | 68 | 1005.4 |
| 20260509174011 | 18 | 222 | 11.3 | 33.8 | 0.00 | 1.22 | 0.46 | 63 | 1005.4 |
| 20260509173510 | 18 | 221 | 9.7 | 25.7 | 0.00 | 1.22 | 0.46 | 68 | 1005.4 |
| 20260509173011 | 17 | 222 | 9.7 | 25.7 | 0.00 | 1.22 | 0.46 | 66 | 1005.4 |
| 20260509172510 | 17 | 219 | 11.3 | 25.7 | 0.00 | 1.22 | 0.46 | 64 | 1005.4 |
| 20260509172011 | 17 | 199 | 12.9 | 29.0 | 0.00 | 1.22 | 0.46 | 70 | 1005.4 |
| 20260509171511 | 17 | 190 | 11.3 | 29.0 | 0.00 | 1.22 | 0.46 | 70 | 1005.4 |
| 20260509171010 | 17 | 205 | 11.3 | 25.7 | 0.00 | 1.22 | 0.46 | 71 | 1005.4 |
| 20260509170511 | 17 | 212 | 12.9 | 25.7 | 0.00 | 1.22 | 0.46 | 70 | 1005.3 |
| 20260509165511 | 17 | 229 | 11.3 | 24.1 | 0.00 | 1.22 | 0.46 | 70 | 1005.5 |
| 20260509165010 | 16 | 237 | 9.7 | 20.9 | 0.00 | 1.22 | 0.46 | 69 | 1005.6 |
| 20260509164010 | 17 | 221 | 6.4 | 17.7 | 0.00 | 1.22 | 0.46 | 79 | 1005.7 |
| 20260509163511 | 16 | 238 | 8.0 | 20.9 | 0.00 | 1.22 | 0.46 | 73 | 1005.9 |
| 20260509163010 | 16 | 245 | 9.7 | 20.9 | 0.00 | 1.22 | 0.46 | 72 | 1005.9 |
| 20260509162510 | 16 | 245 | 9.7 | 22.5 | 0.00 | 1.22 | 0.46 | 78 | 1006.0 |
| 20260509162010 | 15 | 245 | 11.3 | 22.5 | 0.00 | 1.22 | 0.46 | 77 | 1006.1 |
| 20260509161510 | 15 | 255 | 9.7 | 19.3 | 0.00 | 1.22 | 0.46 | 77 | 1006.2 |
| 20260509161011 | 15 | 260 | 8.0 | 17.7 | 0.00 | 1.22 | 0.46 | 81 | 1006.2 |
| 20260509160511 | 14 | 261 | 9.7 | 19.3 | 0.00 | 1.22 | 0.46 | 82 | 1006.3 |
| 20260509160011 | 14 | 270 | 9.7 | 19.3 | 0.00 | 1.22 | 0.46 | 81 | 1006.2 |
| 20260509155510 | 14 | 268 | 9.7 | 19.3 | 0.00 | 1.22 | 0.46 | 81 | 1006.3 |
| 20260509155011 | 15 | 252 | 9.7 | 19.3 | 0.00 | 1.22 | 0.46 | 79 | 1006.1 |
| 20260509154510 | 15 | 238 | 8.0 | 17.7 | 0.00 | 1.22 | 0.46 | 79 | 1006.1 |
| 20260509154010 | 15 | 244 | 8.0 | 22.5 | 0.00 | 1.22 | 0.46 | 82 | 1006.1 |
| 20260509153510 | 15 | 243 | 12.9 | 29.0 | 0.00 | 1.22 | 0.46 | 80 | 1006.1 |
| 20260509153010 | 14 | 240 | 14.5 | 29.0 | 0.00 | 1.22 | 0.46 | 79 | 1006.1 |
| 20260509152511 | 15 | 238 | 14.5 | 25.7 | 0.00 | 1.22 | 0.46 | 79 | 1006.1 |
| 20260509151511 | 15 | 230 | 6.4 | 24.1 | 0.00 | 1.22 | 0.46 | 85 | 1006.1 |
| 20260509150510 | 13 | 239 | 6.4 | 17.7 | 0.00 | 1.22 | 0.46 | 88 | 1006.1 |
| 20260509150010 | 13 | 214 | 6.4 | 16.1 | 0.00 | 1.22 | 0.46 | 89 | 1006.3 |
| 20260509145511 | 13 | 221 | 8.0 | 17.7 | 0.00 | 1.22 | 0.46 | 90 | 1006.3 |
| 20260509145011 | 13 | 235 | 9.7 | 25.7 | 0.00 | 1.22 | 0.46 | 89 | 1006.3 |
| 20260509144510 | 13 | 228 | 9.7 | 25.7 | 0.00 | 1.22 | 0.46 | 90 | 1006.3 |
| 20260509144011 | 13 | 226 | 11.3 | 19.3 | 0.00 | 1.22 | 0.46 | 90 | 1006.2 |
| 20260509143511 | 13 | 227 | 11.3 | 19.3 | 0.00 | 1.22 | 0.46 | 90 | 1006.1 |
| 20260509143010 | 13 | 225 | 8.0 | 19.3 | 0.00 | 1.22 | 0.46 | 91 | 1006.2 |
| 20260509142511 | 13 | 234 | 6.4 | 19.3 | 0.00 | 1.22 | 0.46 | 92 | 1006.2 |
| 20260509142010 | 12 | 234 | 8.0 | 19.3 | 0.00 | 1.22 | 0.46 | 93 | 1006.2 |
| 20260509141511 | 12 | 228 | 8.0 | 16.1 | 0.00 | 1.22 | 0.46 | 94 | 1006.2 |
| 20260509141010 | 12 | 224 | 8.0 | 17.7 | 0.00 | 1.22 | 0.46 | 94 | 1006.2 |
| 20260509140511 | 12 | 225 | 6.4 | 17.7 | 0.00 | 1.22 | 0.46 | 95 | 1006.2 |
| 20260509135010 | 12 | 215 | 8.0 | 16.1 | 0.00 | 1.22 | 0.46 | 95 | 1006.1 |
| 20260509134510 | 12 | 210 | 8.0 | 16.1 | 0.00 | 1.22 | 0.46 | 95 | 1006.2 |
| 20260509134011 | 12 | 215 | 6.4 | 20.9 | 0.00 | 1.22 | 0.46 | 95 | 1006.1 |
| 20260509133510 | 11 | 219 | 6.4 | 20.9 | 0.00 | 1.22 | 0.46 | 96 | 1006.2 |
| 20260509132510 | 11 | 219 | 4.8 | 14.5 | 0.03 | 1.22 | 0.46 | 96 | 1006.3 |
| 20260509132010 | 11 | 218 | 4.8 | 9.7 | 0.03 | 1.22 | 0.46 | 96 | 1006.2 |
| 20260509131510 | 11 | 235 | 4.8 | 12.9 | 0.03 | 1.24 | 0.46 | 96 | 1006.3 |
| 20260509131011 | 11 | 234 | 4.8 | 12.9 | 0.03 | 1.24 | 0.46 | 96 | 1006.3 |
| 20260509130510 | 11 | 225 | 6.4 | 12.9 | 0.03 | 1.27 | 0.46 | 96 | 1006.4 |
| 20260509130011 | 11 | 221 | 8.0 | 17.7 | 0.03 | 1.30 | 0.46 | 96 | 1006.4 |
| 20260509125510 | 11 | 222 | 8.0 | 17.7 | 0.03 | 1.30 | 0.46 | 96 | 1006.4 |
| 20260509125010 | 11 | 227 | 6.4 | 16.1 | 0.03 | 1.30 | 0.46 | 96 | 1006.5 |
| 20260509123510 | 11 | 214 | 6.4 | 14.5 | 0.03 | 1.30 | 0.46 | 97 | 1006.7 |
| 20260509123010 | 11 | 217 | 8.0 | 16.1 | 0.03 | 1.30 | 0.46 | 97 | 1006.6 |
| 20260509122510 | 11 | 215 | 6.4 | 16.1 | 0.00 | 1.27 | 0.43 | 97 | 1006.7 |
| 20260509121010 | 11 | 208 | 6.4 | 14.5 | 0.00 | 1.27 | 0.43 | 97 | 1006.6 |
| 20260509120510 | 11 | 212 | 6.4 | 14.5 | 0.00 | 1.30 | 0.43 | 97 | 1006.7 |
| 20260509120010 | 11 | 212 | 4.8 | 12.9 | 0.00 | 1.32 | 0.43 | 97 | 1006.6 |
| 20260509115510 | 11 | 214 | 4.8 | 12.9 | 0.00 | 1.40 | 0.43 | 97 | 1006.7 |
| 20260509115011 | 11 | 211 | 6.4 | 11.3 | 0.00 | 1.40 | 0.43 | 97 | 1006.7 |
| 20260509114510 | 10 | 200 | 6.4 | 12.9 | 0.00 | 1.40 | 0.43 | 97 | 1006.6 |
| 20260509114010 | 10 | 200 | 6.4 | 17.7 | 0.00 | 1.40 | 0.43 | 97 | 1006.6 |
| 20260509113510 | 10 | 197 | 4.8 | 17.7 | 0.00 | 1.40 | 0.43 | 97 | 1006.7 |
| 20260509113010 | 10 | 192 | 4.8 | 11.3 | 0.00 | 1.40 | 0.43 | 97 | 1006.6 |
| 20260509112510 | 10 | 194 | 4.8 | 11.3 | 0.00 | 1.40 | 0.43 | 97 | 1006.6 |
| 20260509112010 | 10 | 200 | 4.8 | 9.7 | 0.00 | 1.40 | 0.43 | 97 | 1006.6 |
| 20260509111510 | 10 | 208 | 4.8 | 11.3 | 0.00 | 1.40 | 0.43 | 97 | 1006.6 |
| 20260509110510 | 10 | 211 | 4.8 | 11.3 | 0.00 | 1.40 | 0.43 | 97 | 1006.4 |
| 20260509110010 | 10 | 209 | 3.2 | 9.7 | 0.00 | 1.40 | 0.43 | 97 | 1006.4 |
| 20260509105511 | 10 | 198 | 4.8 | 11.3 | 0.00 | 1.40 | 0.43 | 97 | 1006.4 |
| 20260509105010 | 10 | 189 | 4.8 | 11.3 | 0.00 | 1.40 | 0.43 | 97 | 1006.3 |
| 20260509104510 | 10 | 176 | 4.8 | 9.7 | 0.00 | 1.40 | 0.43 | 97 | 1006.3 |
| 20260509104011 | 10 | 177 | 3.2 | 11.3 | 0.00 | 1.40 | 0.43 | 97 | 1006.3 |
| 20260509103510 | 10 | 195 | 3.2 | 11.3 | 0.00 | 1.40 | 0.43 | 97 | 1006.3 |
| 20260509102010 | 10 | 157 | 3.2 | 9.7 | 0.00 | 1.40 | 0.43 | 97 | 1006.4 |
| 20260509101510 | 10 | 172 | 3.2 | 8.0 | 0.00 | 1.40 | 0.43 | 97 | 1006.5 |
| 20260509101010 | 10 | 190 | 3.2 | 9.7 | 0.00 | 1.40 | 0.43 | 97 | 1006.5 |
| 20260509100510 | 10 | 193 | 3.2 | 9.7 | 0.00 | 1.40 | 0.43 | 97 | 1006.4 |
| 20260509100010 | 10 | 201 | 4.8 | 11.3 | 0.00 | 1.40 | 0.43 | 97 | 1006.5 |
| 20260509095510 | 10 | 202 | 6.4 | 11.3 | 0.00 | 1.40 | 0.43 | 97 | 1006.5 |
| 20260509095010 | 10 | 197 | 4.8 | 11.3 | 0.00 | 1.40 | 0.43 | 97 | 1006.6 |
| 20260509094510 | 10 | 199 | 3.2 | 11.3 | 0.00 | 1.40 | 0.43 | 97 | 1006.6 |
| 20260509094010 | 10 | 193 | 4.8 | 11.3 | 0.00 | 1.40 | 0.43 | 97 | 1006.7 |
| 20260509093510 | 10 | 187 | 4.8 | 11.3 | 0.00 | 1.40 | 0.43 | 97 | 1006.6 |
| 20260509093011 | 10 | 195 | 6.4 | 12.9 | 0.00 | 1.40 | 0.43 | 97 | 1006.6 |
| 20260509092510 | 10 | 212 | 6.4 | 12.9 | 0.00 | 1.40 | 0.43 | 97 | 1006.7 |
| 20260509092010 | 10 | 220 | 4.8 | 11.3 | 0.00 | 1.40 | 0.43 | 96 | 1006.8 |
| 20260509091510 | 10 | 215 | 4.8 | 20.9 | 0.00 | 1.40 | 0.43 | 97 | 1006.9 |
| 20260509091010 | 10 | 217 | 6.4 | 20.9 | 0.00 | 1.40 | 0.43 | 97 | 1006.9 |
| 20260509090510 | 10 | 221 | 6.4 | 20.9 | 0.00 | 1.40 | 0.43 | 97 | 1006.9 |
| 20260509085510 | 10 | 214 | 4.8 | 12.9 | 0.00 | 1.40 | 0.43 | 97 | 1006.8 |
| 20260509085010 | 10 | 205 | 6.4 | 16.1 | 0.00 | 1.40 | 0.43 | 97 | 1006.9 |
| 20260509084510 | 10 | 196 | 6.4 | 17.7 | 0.00 | 1.40 | 0.43 | 97 | 1006.9 |
| 20260509084010 | 10 | 201 | 6.4 | 17.7 | 0.00 | 1.40 | 0.43 | 97 | 1007.0 |
| 20260509083510 | 10 | 207 | 6.4 | 14.5 | 0.00 | 1.40 | 0.43 | 97 | 1007.0 |
| 20260509083010 | 10 | 212 | 4.8 | 12.9 | 0.00 | 1.40 | 0.43 | 97 | 1007.0 |
| 20260509082511 | 10 | 217 | 4.8 | 11.3 | 0.00 | 1.40 | 0.43 | 97 | 1007.1 |
| 20260509082010 | 10 | 210 | 4.8 | 11.3 | 0.03 | 1.40 | 0.43 | 97 | 1007.1 |